Flag for Saint Lucia Weather past 2 weeks in Vieux Fort, Saint Lucia

Now
81 °F

Passing clouds.


Feels Like: 85 °F
Forecast: 81 / 86 °F
Wind: 23 mph from East

Location: Hewanorra International Airport

Current Time: Jul 2, 2015 at 6:19:43 AM

Latest Report: Jul 2, 2015 at 6:00 AM


Visibility: N/A

Pressure: 30.01 "Hg

Humidity: 79%

Dew point: 73 °F

Location of Vieux FortLocation

Historic Weather in Vieux Fort — Graph

°F

Vieux Fort temperature yesterday

Maximum temperature yesterday: 86 °F (at 11:00 AM)
Minimum temperature yesterday: 81 °F (at 2:00 AM)
Average temperature yesterday: 83 °F

Past Weeks' High & Low Weather Summary

 TemperatureHumidityPressure
High88 °F (Jun 25, 12:00 PM)94% (Jun 21, 7:00 PM)30.12 "Hg (Jun 21, 7:00 PM)
Low79 °F (Jun 21, 8:00 AM)59% (Jun 25, 1:00 PM)29.95 "Hg (Jun 18, 5:00 PM)
Average83 °F75%30.04 "Hg
* Reported Jun 17 5:00 AM — Jul 2 5:00 AM, Vieux Fort, Weather by CustomWeather, © 2015

Note: Actual official high and low records may vary slightly from our data, if they occured in-between our weather recording intervals... More about our weather records

Advertising

Vieux Fort weather history for previous 24 hours

 ConditionsComfort  
Time TempWeatherWind HumidityBarometerVisibility
5:00 AM
Thu, Jul 2
81 °FPartly cloudy.18 mph74%29.98 "HgN/A
4:00 AM81 °FPassing clouds.23 mph74%29.98 "HgN/A
3:00 AM81 °FPassing clouds.21 mph74%29.98 "HgN/A
2:00 AM81 °FPassing clouds.18 mph74%30.01 "HgN/A
1:00 AM81 °FPassing clouds.23 mph74%30.01 "HgN/A
12:00 AM81 °FPassing clouds.21 mph74%30.04 "HgN/A
11:00 PM
Wed, Jul 1
81 °FPassing clouds.21 mph79%30.07 "HgN/A
10:00 PM82 °FPartly cloudy.18 mph70%30.04 "HgN/A
9:00 PM82 °FPassing clouds.21 mph74%30.04 "HgN/A
8:00 PM82 °FPassing clouds.18 mph74%30.01 "HgN/A
7:00 PM82 °FPassing clouds.18 mph74%30.01 "HgN/A
6:00 PM82 °FBroken clouds.21 mph70%30.01 "HgN/A
5:00 PM84 °FBroken clouds.21 mph66%29.98 "HgN/A
4:00 PM86 °FPartly sunny.23 mph62%29.98 "HgN/A
3:00 PM86 °FScattered clouds.23 mph66%30.01 "HgN/A
2:00 PM86 °FScattered clouds.23 mph66%30.01 "HgN/A
1:00 PM86 °FScattered clouds.28 mph66%30.04 "HgN/A
12:00 PM86 °FScattered clouds.28 mph66%30.07 "HgN/A
11:00 AM86 °FScattered clouds.28 mph62%30.07 "HgN/A
10:00 AM84 °FPassing clouds.24 mph66%30.07 "HgN/A
9:00 AM84 °FPassing clouds.25 mph66%30.07 "HgN/A
8:00 AM82 °FScattered clouds.24 mph74%30.07 "HgN/A
7:00 AM81 °FScattered clouds.22 mph79%30.04 "HgN/A
6:00 AM81 °FScattered clouds.22 mph79%30.04 "HgN/A
Weather by CustomWeather, © 2015

See weather overviewHow to use our weather pages